• Em Portugal
  • Lista de países
  • Para 7 dias
  • Temperatura da água
  • Mapas de satélite
  • Mapa do tempo
  • Widgets de tempo
  • user-avatar
    Iniciar Sessão

    Previsão horária em Bejrut

    Hoje, 18 Fevereiro, Domingo

    Tempo Temperatura Precipitação Vento Pressão Humidade
    00:00 +13°C° 0,9 mm 6 m/s 750 mmHg 93%
    01:00 +14°C° 0,9 mm 6 m/s 750 mmHg 92%
    02:00 +14°C° 0,9 mm 6 m/s 750 mmHg 92%
    03:00 +14°C° 0,5 mm 6 m/s 751 mmHg 91%
    04:00 +14°C° 0,5 mm 6 m/s 751 mmHg 91%
    05:00 +13°C° 0,5 mm 6 m/s 751 mmHg 90%
    06:00 +14°C° 0,2 mm 5 m/s 752 mmHg 88%
    07:00 +14°C° 0,2 mm 4 m/s 752 mmHg 86%
    08:00 +14°C° 0,2 mm 4 m/s 753 mmHg 84%
    09:00 +15°C° 0,1 mm 4 m/s 753 mmHg 80%
    10:00 +15°C° 0,1 mm 4 m/s 753 mmHg 76%
    11:00 +17°C° 0,1 mm 4 m/s 753 mmHg 72%
    12:00 +17°C° 0 mm 3 m/s 753 mmHg 69%
    13:00 +17°C° 0 mm 3 m/s 753 mmHg 66%
    14:00 +18°C° 0 mm 3 m/s 754 mmHg 63%
    15:00 +17°C° 0 mm 3 m/s 754 mmHg 64%
    16:00 +16°C° 0 mm 2 m/s 754 mmHg 66%
    17:00 +16°C° 0 mm 2 m/s 755 mmHg 68%
    18:00 +15°C° 0 mm 2 m/s 755 mmHg 71%
    19:00 +14°C° 0 mm 2 m/s 756 mmHg 74%
    20:00 +12°C° 0 mm 3 m/s 756 mmHg 76%
    21:00 +12°C° 0 mm 3 m/s 756 mmHg 77%
    22:00 +12°C° 0 mm 3 m/s 757 mmHg 78%
    23:00 +12°C° 0 mm 4 m/s 757 mmHg 79%

    Amanhã, 19 Fevereiro, Segunda-feira

    Tempo Temperatura Precipitação Vento Pressão Humidade
    00:00 +11°C° 0 mm 3 m/s 757 mmHg 81%
    01:00 +11°C° 0 mm 3 m/s 757 mmHg 82%
    02:00 +11°C° 0 mm 3 m/s 757 mmHg 84%
    03:00 +11°C° 0 mm 3 m/s 757 mmHg 83%
    04:00 +11°C° 0 mm 3 m/s 757 mmHg 83%
    05:00 +10°C° 0 mm 3 m/s 757 mmHg 83%
    06:00 +12°C° 0 mm 4 m/s 757 mmHg 78%
    07:00 +13°C° 0 mm 4 m/s 758 mmHg 73%
    08:00 +14°C° 0 mm 4 m/s 758 mmHg 68%
    09:00 +15°C° 0 mm 4 m/s 758 mmHg 64%
    10:00 +17°C° 0 mm 4 m/s 758 mmHg 60%
    11:00 +19°C° 0 mm 5 m/s 758 mmHg 55%
    12:00 +19°C° 0 mm 4 m/s 758 mmHg 56%
    13:00 +19°C° 0 mm 4 m/s 757 mmHg 57%
    14:00 +19°C° 0 mm 4 m/s 757 mmHg 58%
    15:00 +19°C° 0 mm 4 m/s 757 mmHg 64%
    16:00 +18°C° 0 mm 4 m/s 757 mmHg 69%
    17:00 +17°C° 0 mm 3 m/s 757 mmHg 74%
    18:00 +16°C° 0 mm 3 m/s 757 mmHg 79%
    19:00 +16°C° 0 mm 2 m/s 757 mmHg 84%
    20:00 +15°C° 0 mm 2 m/s 757 mmHg 88%
    21:00 +15°C° 0 mm 2 m/s 757 mmHg 86%
    22:00 +15°C° 0 mm 2 m/s 757 mmHg 84%
    23:00 +15°C° 0 mm 2 m/s 757 mmHg 82%

    Depois de amanhã, 20 Fevereiro, Terça-feira

    Tempo Temperatura Precipitação Vento Pressão Humidade
    00:00 +14°C° 0 mm 1 m/s 757 mmHg 83%
    01:00 +14°C° 0 mm 1 m/s 757 mmHg 84%
    02:00 +12°C° 0 mm 0 m/s 757 mmHg 84%
    03:00 +12°C° 0 mm 0 m/s 757 mmHg 83%
    04:00 +13°C° 0 mm 1 m/s 756 mmHg 81%
    05:00 +12°C° 0 mm 1 m/s 756 mmHg 80%
    06:00 +14°C° 0 mm 1 m/s 756 mmHg 70%
    07:00 +15°C° 0 mm 1 m/s 757 mmHg 61%
    08:00 +16°C° 0 mm 0 m/s 757 mmHg 51%
    09:00 +19°C° 0 mm 1 m/s 757 mmHg 46%
    10:00 +20°C° 0 mm 1 m/s 756 mmHg 40%
    11:00 +20°C° 0 mm 2 m/s 756 mmHg 34%
    12:00 +20°C° 0 mm 2 m/s 756 mmHg 37%
    13:00 +20°C° 0 mm 2 m/s 755 mmHg 40%
    14:00 +20°C° 0 mm 2 m/s 755 mmHg 44%
    15:00 +19°C° 0 mm 2 m/s 754 mmHg 49%
    16:00 +19°C° 0 mm 2 m/s 754 mmHg 54%
    17:00 +18°C° 0 mm 2 m/s 754 mmHg 60%
    18:00 +17°C° 0 mm 2 m/s 754 mmHg 63%
    19:00 +16°C° 0 mm 2 m/s 754 mmHg 67%
    20:00 +15°C° 0 mm 2 m/s 755 mmHg 71%
    21:00 +15°C° 0 mm 2 m/s 755 mmHg 72%
    22:00 +15°C° 0 mm 1 m/s 755 mmHg 73%
    23:00 +14°C° 0 mm 1 m/s 754 mmHg 75%

    21 Fevereiro, Quarta-feira

    Tempo Temperatura Precipitação Vento Pressão Humidade
    00:00 +14°C° 0 mm 1 m/s 754 mmHg 74%
    01:00 +14°C° 0 mm 1 m/s 754 mmHg 74%
    02:00 +14°C° 0 mm 1 m/s 754 mmHg 73%
    03:00 +14°C° 0 mm 1 m/s 754 mmHg 74%
    04:00 +13°C° 0 mm 1 m/s 754 mmHg 74%
    05:00 +13°C° 0 mm 1 m/s 754 mmHg 75%
    06:00 +14°C° 0 mm 1 m/s 754 mmHg 68%
    07:00 +16°C° 0 mm 1 m/s 755 mmHg 62%
    08:00 +18°C° 0 mm 1 m/s 755 mmHg 55%
    09:00 +19°C° 0 mm 1 m/s 755 mmHg 52%
    10:00 +20°C° 0 mm 1 m/s 755 mmHg 48%
    11:00 +20°C° 0 mm 2 m/s 755 mmHg 44%
    12:00 +20°C° 0 mm 2 m/s 754 mmHg 45%
    13:00 +20°C° 0 mm 2 m/s 754 mmHg 47%
    14:00 +20°C° 0 mm 2 m/s 753 mmHg 49%
    15:00 +20°C° 0 mm 2 m/s 753 mmHg 53%
    16:00 +19°C° 0 mm 2 m/s 753 mmHg 57%
    17:00 +19°C° 0 mm 2 m/s 753 mmHg 61%
    18:00 +18°C° 0 mm 2 m/s 753 mmHg 63%
    19:00 +17°C° 0 mm 2 m/s 754 mmHg 66%
    20:00 +16°C° 0 mm 2 m/s 754 mmHg 68%
    21:00 +16°C° 0 mm 2 m/s 754 mmHg 67%
    22:00 +16°C° 0 mm 2 m/s 754 mmHg 66%
    23:00 +16°C° 0 mm 2 m/s 754 mmHg 64%

    22 Fevereiro, Quinta-feira

    Tempo Temperatura Precipitação Vento Pressão Humidade
    00:00 +16°C° 0 mm 2 m/s 754 mmHg 62%
    01:00 +16°C° 0 mm 2 m/s 753 mmHg 60%
    02:00 +16°C° 0 mm 2 m/s 753 mmHg 57%
    03:00 +16°C° 0 mm 2 m/s 753 mmHg 57%
    04:00 +16°C° 0 mm 2 m/s 753 mmHg 56%
    05:00 +16°C° 0 mm 2 m/s 752 mmHg 56%
    06:00 +17°C° 0 mm 2 m/s 753 mmHg 58%
    07:00 +17°C° 0 mm 2 m/s 753 mmHg 60%
    08:00 +17°C° 0 mm 2 m/s 753 mmHg 62%
    09:00 +17°C° 0,3 mm 2 m/s 753 mmHg 64%
    10:00 +17°C° 0,3 mm 3 m/s 753 mmHg 65%
    11:00 +17°C° 0,3 mm 3 m/s 752 mmHg 66%
    12:00 +18°C° 0,3 mm 3 m/s 752 mmHg 64%
    13:00 +19°C° 0,3 mm 3 m/s 751 mmHg 62%
    14:00 +20°C° 0,3 mm 3 m/s 751 mmHg 60%
    15:00 +19°C° 0,3 mm 4 m/s 751 mmHg 65%
    16:00 +19°C° 0,3 mm 4 m/s 750 mmHg 70%
    17:00 +17°C° 0,3 mm 5 m/s 750 mmHg 75%
    18:00 +17°C° 0 mm 5 m/s 750 mmHg 74%
    19:00 +17°C° 0 mm 5 m/s 750 mmHg 73%
    20:00 +16°C° 0 mm 5 m/s 750 mmHg 72%
    21:00 +16°C° 0,1 mm 5 m/s 749 mmHg 74%
    22:00 +16°C° 0,1 mm 5 m/s 749 mmHg 75%
    23:00 +15°C° 0,1 mm 4 m/s 749 mmHg 77%

    23 Fevereiro, Sexta-feira

    Tempo Temperatura Precipitação Vento Pressão Humidade
    00:00 +15°C° 0,2 mm 4 m/s 749 mmHg 77%
    01:00 +15°C° 0,2 mm 4 m/s 749 mmHg 77%
    02:00 +14°C° 0,2 mm 3 m/s 749 mmHg 78%
    03:00 +14°C° 0,1 mm 3 m/s 749 mmHg 78%
    04:00 +15°C° 0,1 mm 2 m/s 749 mmHg 79%
    05:00 +15°C° 0,1 mm 2 m/s 750 mmHg 79%
    06:00 +15°C° 0,3 mm 2 m/s 750 mmHg 79%
    07:00 +16°C° 0,3 mm 3 m/s 751 mmHg 78%
    08:00 +17°C° 0,3 mm 3 m/s 751 mmHg 77%
    09:00 +18°C° 0,4 mm 4 m/s 751 mmHg 74%
    10:00 +18°C° 0,4 mm 4 m/s 752 mmHg 70%
    11:00 +19°C° 0,4 mm 5 m/s 752 mmHg 66%
    12:00 +19°C° 0,3 mm 5 m/s 752 mmHg 68%
    13:00 +17°C° 0,3 mm 5 m/s 752 mmHg 69%
    14:00 +18°C° 0,3 mm 4 m/s 752 mmHg 71%
    15:00 +18°C° 0,2 mm 4 m/s 752 mmHg 74%
    16:00 +17°C° 0,2 mm 4 m/s 752 mmHg 76%
    17:00 +17°C° 0,2 mm 4 m/s 752 mmHg 78%
    18:00 +17°C° 0,5 mm 4 m/s 753 mmHg 82%
    19:00 +15°C° 0,5 mm 5 m/s 753 mmHg 85%
    20:00 +15°C° 0,5 mm 5 m/s 754 mmHg 88%
    21:00 +15°C° 1 mm 5 m/s 754 mmHg 89%
    22:00 +15°C° 1 mm 5 m/s 754 mmHg 89%
    23:00 +15°C° 1 mm 5 m/s 754 mmHg 89%
    Mostrar mais